Regional Weather Roundup
Issued by NWS Spokane, WA

Home | Current Version | Previous Version | Text Only | Print | Product List | Glossary On
Versions: 1 2 3 4 5 6 7 8 9 10 11 12 13 14 15 16 17 18 19 20 21 22 23 24 25 26 27 28 29 30 31 32 33 34 35 36 37 38 39 40 41 42 43 44 45 46 47 48 49 50
000
NZUS01 KOTX 251625
RWROTX

Eastern Washington/Northern Idaho Roundup
National Weather Service, Spokane WA
900 AM PDT SUN JUN 25 2017

Note: "fair" indicated few or no clouds below 12,000 feet with no
significant weather and/or obstructions to visibility.

...Northeast Washington and Northern Idaho Panhandle...

CITY           SKY/WX    TMP DP  RH WIND       PRES   REMARKS
Spokane Intl   MOSUNNY   70  45  40 NE9       30.13F
Spokane Downto SUNNY     70  47  43 NW3       30.13F
Coeur d Alene  SUNNY     71  48  43 N14       30.15F
Deer Park      SUNNY     74  45  35 N9        30.13F
Sandpoint      SUNNY     72  45  37 NE13      30.16F
Bonners Ferry  FAIR      66  48  52 CALM      30.20F

...Southeast Washington and southern Idaho Panhandle...

CITY           SKY/WX    TMP DP  RH WIND       PRES   REMARKS
Walla Walla    SUNNY     75  48  38 CALM      30.03S
Pullman/Moscow SUNNY     74  48  39 E15       30.13S
Lewiston       SUNNY     73  48  41 NE7       30.08F
Lowell           N/A     65  52  62 CALM      30.13F
Grangeville    FAIR      68  46  45 NE5       30.16F

...Columbia Basin...

CITY           SKY/WX    TMP DP  RH WIND       PRES   REMARKS
Ephrata        SUNNY     80  40  23 N9        30.06F
Moses Lake     SUNNY     79  46  31 N9        30.06F
Pasco          SUNNY     71  51  49 CALM      30.02F
Richland       SUNNY     77  51  39 CALM      30.02S
Hermiston      SUNNY     71  49  45 N6        30.01S
Pendleton      SUNNY     76  46  34 S3        30.03S

...East Slopes Cascades...

CITY           SKY/WX    TMP DP  RH WIND       PRES   REMARKS
The Dalles     SUNNY     72  47  40 CALM      29.99F
Yakima         SUNNY     75  51  43 W6        30.05F
Ellensburg     SUNNY     71  46  40 NE3       30.09F
Stampede Pass  SUNNY     68  42  38 VRB3      30.16S
Wenatchee      SUNNY     71  42  35 W6        30.08S
Omak           SUNNY     73  44  35 VRB5      30.09F
Chelan           N/A     72  45  37 MISG        N/A
Sunnyside      SUNNY     71  48  43 CALM      30.02F

...Southern British Columbia...

CITY           SKY/WX    TMP DP  RH WIND       PRES   REMARKS
Penticton      MOSUNNY   72  46  40 N3        30.09F
Castlegar      SUNNY     68  45  42 N7        30.16F
Cranbrook      MOSUNNY   64  39  39 VRB2      30.25F
Osoyoos          N/A     72  50  46 SW1         N/A
Creston          N/A     68  46  45 W3          N/A

...Western Montana...

CITY           SKY/WX    TMP DP  RH WIND       PRES   REMARKS
Kalispell      SUNNY     68  48  48 NE7       30.24S
Missoula       SUNNY     65  45  48 VRB3      30.26F

...Neighboring Cities...

CITY           SKY/WX    TMP DP  RH WIND       PRES   REMARKS
Seattle        MOSUNNY   74  55  51 NW3       29.94F
Portland       MOSUNNY   77  54  44 W3        29.87S
Boise          SUNNY     77  42  28 S10       30.13F
Great Falls    SUNNY     66  42  41 SE6       30.30F
Calgary        MOSUNNY   66  45  45 S9        30.24F



USA.gov is the U.S. government's official web portal to all federal, state and local government web resources and services.